Showing default

KUIPER-00437, 68870

Orbit data source: Space-Track

KUIPER-00437, 68870 is an American payload satellite in LEO that was launched on Tue, 28 Apr 2026 UTC launched from the Air Force Eastern Test Range (AFETR). Payload-class satellites include a variety of spacecraft equipped with specific instruments for various scientific and technological missions. These include communications satellites like Starlink; space stations such as the ISS; scientific satellites like the Hubble; Earth observation satellites from companies like Planet Labs, Umbra, and HawkEye 360; GPS; miniature CubeSats for education and research; and military/defense satellites.

Loading next visibility...
Identifier
68870, 2026-095G
Orbit
LEO
Country
Flag of USUS
Related business
None
Manufacturer
Unknown
Mission
Operational spacecraft
Bus & Motor
Unknown
Mass
Unknown
Launch date (UTC)
2026-04-28 (4 days ago)
Launch vehicle
Unknown
Launch site
Air Force Eastern Test Range (AFETR)
Object type
Payload
Rocket body
Debris
Shape & HBR
Unknown
Radar Cross Section
RCS unknown

Expand to show TLE details & history
Last TLE update: 7 hours ago

TLE from 7 hours ago
0 KUIPER-00437
1 68870U 26095G   26122.16670139 -.00002495  00000-0 -57492-4 0  9990
2 68870  51.8781 104.9252 0007660 122.8248  73.1064 15.36805680  1307
Epoch: 2026-05-02T04:00Z
TLE epoch observation values (Epoch: 2026-05-02T04:00:03.000Z)
Latitude
-12.68388°
Longitude
14.93968°
Altitude
457.311 km
Speed
7.64 km/s
True Right ascension
19h 40m 09s
True Declination
-12° 36' 26"
Sunlit
Object was in daylight at epoch
Visualization orbit readout
Latitude
Unknown
Longitude
Unknown
Altitude
Unknown
Speed
Unknown
Apparent Right ascension
Unknown
Apparent Declination
Unknown
Sunlit
N/A
Visualization observer readout
Local Sidereal Time
18:39:45
Azimuth
Unknown
Elevation
Unknown
Doppler factor
Unknown
Orbital elements
Apogee altitude
461.263 km
Perigee altitude
450.793 km
Semi-major axis
6,834.165 km
Eccentricity
0.00077
Inclination
51.8781°
RAAN
104.9252°
Arg. of periapsis
122.8248°
True anomaly
73.19041°
Mean anomaly
73.1064°
Eccentric anomaly
73.1484°
Mean motion
3.84162 °/min
Orbital period
93.71 mins
BSTAR
-0.000057492
Loading maneuver chart data...
Computing Atmospheric mass density...
Loading historical data...
Loading historical data...
Loading historical data...
Loading historical data...
Loading historical data...
Loading historical data...
Loading historical data...

Documentation

Showing up to 5 results
|